User: anonymous   Login
Location: Arcusa
(42.3167°N, 0.0833°W)
Time: 11:38:00
(UTC+00:00)
Language:

MOS 1-B - Orbit

View from above orbital plane
View from above orbital plane
View from above satellite
View from above satellite

Ground track
Ground track

The orbit data is extracted from the following two-line orbital elements,

1 20478U 90013A   20088.88221172 -.00000180 +00000-0 -98366-4 0  9990
2 20478 099.4184 083.0886 0004893 220.7606 139.3189 13.95499166455199
Epoch (UTC): 28 March 2020 21:10:23
Eccentricity: 0.0004893
inclination: 99.4184°
perigee height: 906 km
apogee height: 913 km
right ascension of ascending node: 83.0886°
argument of perigee: 220.7606°
revolutions per day: 13.95499166
mean anomaly at epoch: 139.3189°
orbit number at epoch: 45519

The dashed part of the orbit path shows where the satellite is in the earth's shadow,  

DLR